This is the latest recevied weather packets stored in our database for station/object N1ICS-1. If no packets are shown the sender has not sent any weather packets the latest 10 day(s).
| Time | Temp. | Humidity | Pressure | Rain* | Wind** | Luminosity | Snow |
|---|---|---|---|---|---|---|---|
| 1777708502 | 0.56° C | 85% | 1019.2 hPa | 0 mm | - | 0 W/m² | - |
| 1777708202 | 0.56° C | 85% | 1018.9 hPa | 0 mm | - | 0 W/m² | - |
| 1777707902 | 0.56° C | 85% | 1019 hPa | 0 mm | - | 0 W/m² | - |
| 1777707602 | 1.11° C | 81% | 1018.9 hPa | 0 mm | - | 0 W/m² | - |
| 1777707302 | 1.11° C | 81% | 1018.7 hPa | 0 mm | - | 0 W/m² | - |
| 1777707002 | 1.11° C | 81% | 1019 hPa | 0 mm | - | 0 W/m² | - |
| 1777706702 | 1.11° C | 83% | 1019 hPa | 0 mm | - | 0 W/m² | - |
| 1777706402 | 1.11° C | 83% | 1019.2 hPa | 0 mm | - | 0 W/m² | - |
| 1777706102 | 1.11° C | 82% | 1019 hPa | 0 mm | - | 0 W/m² | - |
| 1777705803 | 1.11° C | 83% | 1019 hPa | 0 mm | - | 0 W/m² | - |
| 1777705502 | 1.67° C | 81% | 1019.1 hPa | 0 mm | - | 0 W/m² | - |
| 1777705202 | 1.67° C | 82% | 1019.1 hPa | 0 mm | - | 0 W/m² | - |
| 1777704902 | 1.67° C | 82% | 1019.1 hPa | 0 mm | - | 0 W/m² | - |
| 1777704602 | 1.67° C | 82% | 1019 hPa | 0 mm | - | 0 W/m² | - |
| 1777704302 | 2.22° C | 82% | 1019.1 hPa | 0 mm | - | 0 W/m² | - |
| 1777704002 | 2.22° C | 83% | 1019.2 hPa | 0 mm | - | 0 W/m² | - |
| 1777703701 | 2.22° C | 83% | 1019.1 hPa | 0 mm | - | 0 W/m² | - |
| 1777703401 | 1.67° C | 84% | 1018.9 hPa | 0 mm | - | 0 W/m² | - |
| 1777703102 | 1.67° C | 84% | 1019.2 hPa | 0 mm | - | 0 W/m² | - |
| 1777702802 | 1.67° C | 85% | 1019.2 hPa | 0 mm | - | 0 W/m² | - |
| 1777702501 | 1.67° C | 84% | 1019.3 hPa | 0 mm | - | 0 W/m² | - |
| 1777702202 | 2.22° C | 84% | 1019.4 hPa | 0 mm | - | 0 W/m² | - |
| 1777701902 | 1.67° C | 84% | 1019.3 hPa | 0 mm | - | 0 W/m² | - |
| 1777701603 | 1.67° C | 86% | 1019.2 hPa | 0 mm | - | 0 W/m² | - |
| 1777701302 | 1.67° C | 86% | 1019.2 hPa | 0 mm | - | 0 W/m² | - |
* Rain latest hour (hover to see other rain measurements)
** Current wind speed in m/s (hover to see current wind gust speed)